Location: Le Castellard
(44.1862°N, 6.1301°E)
Time: 21:39:42
(UTC+00:00)

Cosmos 2297 Rocket - Pass Details

Date: 18 January 2020
Orbit: 838 x 845 km, 71.0° (Epoch: 17 February)

Event Time Altitude Azimuth Distance (km) Brightness Sun altitude
Exits shadow 06:05:37 13° 273° (W) 2,279 3.8 -10.8°
Maximum altitude 06:06:25 13° 264° (W) 2,254 3.9 -10.7°
Drops below altitude 10° 06:08:53 10° 237° (WSW) 2,462 4.3 -10.2°
Sets 06:12:44 0° 211° (SSW) 3,391 5.2 -9.6°
